Weather History for Weatherford, OK

Change the Weather History Date:

Wednesday, October 30, 2013

  Actual Average (KJWG) Record (KJWG)
Temperature  
Mean Temperature 72 °F -  
Max Temperature 77 °F 66 °F 87 °F (1968)
Min Temperature 68 °F 45 °F 20 °F (1993)
Cooling Degree Days 8    
Growing Degree Days 22 (Base 50)    
Moisture  
Dew Point 66 °F    
Average Humidity 85    
Maximum Humidity 100    
Minimum Humidity 65    
Precipitation  
Precipitation 0.00 in - - ()
Sea Level Pressure  
Sea Level Pressure 29.84 in    
Wind  
Wind Speed 14 mph (South)    
Max Wind Speed 21 mph    
Max Gust Speed 26 mph    
Visibility 10 miles    
Events Rain , Thunderstorm    
Averages and records for this station are not official NWS values.
T = Trace of Precipitation, MM = Missing Value Source: NWS Daily Summary

Daily Weather History Graph

Daily Weather History Graph

Search for Another Location

Airport:

Trip Planner

Search our weather history database for the weather conditions in past years. The results will help you decide how hot, cold, wet, or windy it might be!

Date:

Astronomy

Oct. 30, 2013 Rise Set
Actual Time 7:54 AM CDT 6:41 PM CDT
Civil Twilight 7:28 AM CDT 7:07 PM CDT
Nautical Twilight 6:58 AM CDT 7:37 PM CDT
Astronomical Twilight 6:28 AM CDT 8:07 PM CDT
Moon 3:53 AM CDT (10/30) 4:20 PM CDT (10/30)
Length of Visible Light 11h 38m
Length of Day
10h 46m
Waning Crescent, 17% of the Moon is Illuminated
Oct 30
Waning Crescent
Nov 3
New
Nov 9
First Quarter
Nov 17
Full
Nov 25
Last Quarter

Hourly Weather History & Observations

Time (CDT) Temp. Dew Point Humidity Pressure Visibility Wind Dir Wind Speed Gust Speed Precip Events Conditions
12:15 AM 68.0 °F 66.2 °F 94% 29.94 in 10.0 mi South 13.8 mph - N/A   Clear
12:35 AM 68.0 °F 66.2 °F 94% 29.94 in 10.0 mi South 15.0 mph 20.7 mph N/A   Clear
12:55 AM 68.0 °F 66.2 °F 94% 29.95 in 10.0 mi South 13.8 mph - N/A   Mostly Cloudy
1:15 AM 68.0 °F 66.2 °F 94% 29.94 in 10.0 mi South 13.8 mph 19.6 mph N/A   Mostly Cloudy
1:35 AM 68.0 °F 66.2 °F 94% 29.93 in 10.0 mi South 10.4 mph 16.1 mph N/A   Overcast
1:55 AM 68.0 °F 66.2 °F 94% 29.93 in 10.0 mi South 10.4 mph - N/A   Mostly Cloudy
2:15 AM 68.0 °F 66.2 °F 94% 29.92 in 10.0 mi South 9.2 mph - N/A   Scattered Clouds
2:35 AM 68.0 °F 64.4 °F 88% 29.92 in 10.0 mi South 9.2 mph - N/A   Scattered Clouds
2:55 AM 68.0 °F 66.2 °F 94% 29.92 in 10.0 mi South 6.9 mph - N/A   Scattered Clouds
3:15 AM 68.0 °F 64.4 °F 88% 29.91 in 10.0 mi South 10.4 mph - N/A   Scattered Clouds
3:35 AM 68.0 °F 66.2 °F 94% 29.90 in 10.0 mi South 12.7 mph 19.6 mph N/A   Clear
3:55 AM 68.0 °F 66.2 °F 94% 29.90 in 10.0 mi South 13.8 mph - N/A   Clear
4:15 AM 68.0 °F 66.2 °F 94% 29.90 in 10.0 mi South 15.0 mph 19.6 mph N/A   Clear
4:35 AM 68.0 °F 66.2 °F 94% 29.90 in 10.0 mi South 16.1 mph 24.2 mph N/A   Scattered Clouds
4:55 AM 68.0 °F 66.2 °F 94% 29.89 in 10.0 mi South 13.8 mph 20.7 mph N/A   Mostly Cloudy
5:15 AM 69.8 °F 66.2 °F 88% 29.89 in 10.0 mi South 15.0 mph 25.3 mph N/A   Overcast
5:35 AM 69.8 °F 66.2 °F 88% 29.89 in 10.0 mi South 17.3 mph 24.2 mph N/A   Overcast
5:55 AM 69.8 °F 66.2 °F 88% 29.89 in 10.0 mi South 15.0 mph 21.9 mph N/A   Overcast
6:15 AM 69.8 °F 66.2 °F 88% 29.89 in 10.0 mi South 16.1 mph 24.2 mph N/A   Overcast
6:35 AM 69.8 °F 64.4 °F 83% 29.88 in 10.0 mi South 13.8 mph 19.6 mph N/A   Overcast
6:55 AM 68.0 °F 64.4 °F 88% 29.89 in 10.0 mi South 16.1 mph 20.7 mph N/A   Overcast
7:15 AM 68.0 °F 64.4 °F 88% 29.89 in 10.0 mi South 11.5 mph 18.4 mph N/A Thunderstorm Mostly Cloudy
7:35 AM 68.0 °F 64.4 °F 88% 29.89 in 10.0 mi South 13.8 mph - N/A   Mostly Cloudy
7:55 AM 68.0 °F 64.4 °F 88% 29.89 in 10.0 mi South 11.5 mph 18.4 mph N/A   Overcast
8:15 AM 68.0 °F 64.4 °F 88% 29.89 in 10.0 mi South 13.8 mph - N/A   Overcast
8:35 AM 68.0 °F 64.4 °F 88% 29.89 in 10.0 mi South 15.0 mph 20.7 mph N/A   Overcast
8:55 AM 68.0 °F 64.4 °F 88% 29.89 in 10.0 mi South 16.1 mph 20.7 mph N/A   Overcast
9:15 AM 69.8 °F 64.4 °F 83% 29.89 in 10.0 mi South 15.0 mph 20.7 mph N/A   Overcast
9:35 AM 69.8 °F 64.4 °F 83% 29.89 in 10.0 mi South 17.3 mph 23.0 mph N/A   Overcast
9:55 AM 69.8 °F 64.4 °F 83% 29.89 in 10.0 mi South 13.8 mph - N/A   Overcast
10:15 AM 69.8 °F 66.2 °F 88% 29.88 in 10.0 mi South 17.3 mph 23.0 mph N/A   Overcast
10:35 AM 71.6 °F 66.2 °F 83% 29.88 in 10.0 mi SSW 13.8 mph 21.9 mph N/A   Overcast
10:55 AM 71.6 °F 66.2 °F 83% 29.88 in 10.0 mi South 16.1 mph 23.0 mph N/A   Overcast
11:15 AM 69.8 °F 66.2 °F 88% 29.88 in 10.0 mi South 13.8 mph 17.3 mph N/A Thunderstorm Overcast
11:35 AM 69.8 °F 66.2 °F 88% 29.87 in 10.0 mi South 13.8 mph 19.6 mph N/A   Overcast
11:55 AM 71.6 °F 66.2 °F 83% 29.87 in 10.0 mi South 12.7 mph 19.6 mph N/A   Overcast
12:15 PM 71.6 °F 66.2 °F 83% 29.87 in 10.0 mi South 15.0 mph 21.9 mph N/A   Overcast
12:35 PM 73.4 °F 66.2 °F 78% 29.87 in 10.0 mi South 15.0 mph 19.6 mph N/A   Overcast
12:55 PM 73.4 °F 66.2 °F 78% 29.86 in 10.0 mi South 16.1 mph 21.9 mph N/A   Overcast
1:15 PM 73.4 °F 66.2 °F 78% 29.84 in 10.0 mi South 15.0 mph 19.6 mph N/A   Overcast
1:35 PM 73.4 °F 66.2 °F 78% 29.84 in 10.0 mi SSW 16.1 mph 23.0 mph N/A   Overcast
1:55 PM 73.4 °F 66.2 °F 78% 29.82 in 10.0 mi SSW 18.4 mph 23.0 mph N/A   Mostly Cloudy
2:15 PM 73.4 °F 64.4 °F 73% 29.81 in 10.0 mi SSW 17.3 mph 24.2 mph N/A   Mostly Cloudy
2:35 PM 73.4 °F 66.2 °F 78% 29.80 in 10.0 mi South 15.0 mph 21.9 mph N/A   Mostly Cloudy
2:55 PM 73.4 °F 66.2 °F 78% 29.78 in 10.0 mi South 17.3 mph 23.0 mph N/A   Scattered Clouds
3:15 PM 75.2 °F 66.2 °F 73% 29.77 in 10.0 mi South 20.7 mph 26.5 mph N/A   Scattered Clouds
3:35 PM 75.2 °F 64.4 °F 69% 29.77 in 10.0 mi SSW 18.4 mph 23.0 mph N/A   Scattered Clouds
3:55 PM 75.2 °F 64.4 °F 69% 29.77 in 10.0 mi SSW 13.8 mph 21.9 mph N/A   Scattered Clouds
4:15 PM 77.0 °F 64.4 °F 65% 29.77 in 10.0 mi SSW 16.1 mph 19.6 mph N/A   Scattered Clouds
4:35 PM 77.0 °F 64.4 °F 65% 29.75 in 10.0 mi South 15.0 mph 23.0 mph N/A   Scattered Clouds
4:55 PM 75.2 °F 64.4 °F 69% 29.71 in 10.0 mi South 17.3 mph 25.3 mph N/A   Scattered Clouds
5:15 PM 75.2 °F 64.4 °F 69% 29.73 in 10.0 mi South 13.8 mph 20.7 mph N/A   Scattered Clouds
5:35 PM 75.2 °F 64.4 °F 69% 29.74 in 10.0 mi SSW 18.4 mph 24.2 mph N/A   Clear
5:55 PM 73.4 °F 66.2 °F 78% 29.75 in 10.0 mi South 13.8 mph 21.9 mph N/A   Clear
6:15 PM 73.4 °F 66.2 °F 78% 29.75 in 10.0 mi South 13.8 mph 17.3 mph N/A   Clear
6:35 PM 73.4 °F 66.2 °F 78% 29.74 in 10.0 mi SSW 12.7 mph 17.3 mph N/A   Clear
7:55 PM 71.6 °F 64.4 °F 78% 29.75 in 10.0 mi SSW 9.2 mph - N/A   Clear
8:15 PM 71.6 °F 64.4 °F 78% 29.76 in 10.0 mi SSW 8.1 mph - N/A   Clear
8:35 PM 71.6 °F 64.4 °F 78% 29.76 in 10.0 mi South 9.2 mph - N/A   Clear
8:55 PM 69.8 °F 64.4 °F 83% 29.76 in 10.0 mi South 8.1 mph - N/A   Clear
9:15 PM 69.8 °F 64.4 °F 83% 29.75 in 10.0 mi South 8.1 mph - N/A   Clear
9:35 PM 69.8 °F 64.4 °F 83% 29.75 in 10.0 mi South 10.4 mph - N/A   Scattered Clouds
9:55 PM 69.8 °F 68.0 °F 94% 29.74 in 10.0 mi South 11.5 mph 16.1 mph N/A   Scattered Clouds
10:15 PM 69.8 °F 68.0 °F 94% 29.75 in 10.0 mi South 11.5 mph 17.3 mph N/A   Mostly Cloudy
10:35 PM 69.8 °F 68.0 °F 94% 29.75 in 10.0 mi South 15.0 mph 23.0 mph N/A Rain Light Rain
10:55 PM 68.0 °F 68.0 °F 100% 29.73 in 10.0 mi SSE 15.0 mph 20.7 mph N/A   Drizzle
11:15 PM 68.0 °F 68.0 °F 100% 29.70 in 7.0 mi SSE 13.8 mph 20.7 mph N/A Rain Light Rain
11:35 PM 68.0 °F 68.0 °F 100% 29.69 in 7.0 mi SSE 13.8 mph 21.9 mph N/A   Mostly Cloudy
11:55 PM 68.0 °F 66.2 °F 94% 29.69 in 10.0 mi SSE 11.5 mph 16.1 mph N/A   Overcast